Location: Chuathbaluk
(61.5726°N, 159.2454°W)
Time: 16:09:41
(UTC+00:00)

ZACube-1 - Pass Details

Date: 19 January 2021
Orbit: 583 x 666 km, 97.6° (Epoch: 04 March)

Event Time Altitude Azimuth Distance (km) Brightness Sun altitude
Rises 16:07:24 0° 16° (NNE) 3,023 ? -22.5°
Reaches altitude 10° 16:09:39 10° 18° (NNE) 2,108 ? -22.2°
Maximum altitude 16:14:17 79° 105° (ESE) 689 ? -21.6°
Drops below altitude 10° 16:18:52 10° 193° (SSW) 2,084 ? -21.1°
Sets 16:21:04 0° 195° (SSW) 2,985 ? -20.8°
